QPF
0.01 0.02 0.06 0.07 0.08 0.05 0.02 0.03 0.05 0.04 0.06 0.08 0.11 0.11 0.11 0.08 0.07 0.08 0.06 0.04 0.03 0.03 0.05 0.04 0.04 0.04 0.04 0.05 0.05 0.06 0.07 0.07 0.08 0.09 0.09 0.07 0.06 0.09 0.10 0.10 0.08 0.05 0.06
0.01 0.03 0.04 0.04 0.02 0.01 0.02 0.02 0.04 0.03 0.04 0.06 0.07 0.08 0.08 0.07 0.06 0.08 0.07 0.05 0.03 0.04 0.04 0.05 0.03 0.03 0.04 0.04 0.06 0.07 0.07 0.06 0.08 0.09 0.10 0.11 0.10 0.10 0.09 0.09 0.08 0.06 0.05
0.01 0.02 0.01 0.01 0.02 0.01 0.01 0.02 0.04 0.04 0.04 0.04 0.05 0.06 0.06 0.05 0.07 0.07 0.07 0.05 0.04 0.04 0.05 0.05 0.04 0.04 0.04 0.05 0.06 0.07 0.07 0.06 0.07 0.08 0.11 0.13 0.12 0.12 0.09 0.06 0.07 0.07 0.08
0.01 0.02 0.01 0.01 0.00 0.01 0.01 0.01 0.02 0.03 0.03 0.04 0.05 0.04 0.05 0.05 0.06 0.07 0.08 0.06 0.07 0.05 0.05 0.06 0.07 0.08 0.06 0.05 0.04 0.06 0.05 0.05 0.06 0.08 0.08 0.09 0.11 0.11 0.10 0.08 0.06 0.05 0.07
0.00 0.00 0.00 0.01 0.00 0.00 0.01 0.01 0.01 0.03 0.03 0.03 0.03 0.03 0.03 0.04 0.05 0.06 0.06 0.05 0.06 0.05 0.04 0.05 0.07 0.07 0.07 0.05 0.05 0.05 0.04 0.04 0.04 0.05 0.06 0.08 0.09 0.09 0.09 0.08 0.08 0.07 0.06
0.00 0.00 0.00 0.01 0.01 0.00 0.00 0.01 0.03 0.04 0.03 0.02 0.02 0.02 0.02 0.03 0.04 0.05 0.04 0.04 0.05 0.05 0.04 0.04 0.04 0.05 0.06 0.06 0.06 0.06 0.05 0.05 0.04 0.04 0.04 0.05 0.07 0.08 0.08 0.07 0.07 0.07 0.07
0.00 0.00 0.00 0.00 0.00 0.00 0.00 0.01 0.04 0.05 0.03 0.02 0.02 0.02 0.02 0.02 0.03 0.03 0.03 0.02 0.02 0.03 0.04 0.04 0.04 0.04 0.05 0.04 0.04 0.04 0.05 0.04 0.04 0.03 0.04 0.04 0.04 0.06 0.07 0.06 0.07 0.07 0.07
0.00 0.00 0.00 0.00 0.00 0.01 0.02 0.03 0.04 0.04 0.03 0.02 0.01 0.02 0.02 0.02 0.02 0.02 0.01 0.01 0.01 0.01 0.02 0.04 0.03 0.02 0.02 0.02 0.03 0.04 0.04 0.04 0.03 0.03 0.04 0.04 0.04 0.05 0.05 0.06 0.07 0.06 0.06
0.00 0.00 0.00 0.01 0.01 0.02 0.04 0.04 0.02 0.02 0.02 0.01 0.01 0.01 0.01 0.01 0.01 0.01 0.01 0.01 0.01 0.01 0.02 0.03 0.04 0.03 0.02 0.02 0.03 0.03 0.04 0.04 0.04 0.03 0.03 0.03 0.03 0.04 0.04 0.06 0.07 0.06 0.06
0.00 0.00 0.00 0.01 0.01 0.02 0.05 0.06 0.03 0.01 0.01 0.01 0.02 0.01 0.01 0.01 0.01 0.01 0.01 0.01 0.01 0.01 0.02 0.03 0.04 0.04 0.03 0.03 0.03 0.02 0.03 0.04 0.05 0.04 0.03 0.02 0.02 0.02 0.03 0.04 0.06 0.08 0.08
0.00 0.00 0.01 0.02 0.02 0.04 0.05 0.05 0.04 0.02 0.02 0.02 0.02 0.02 0.02 0.03 0.02 0.03 0.02 0.02 0.02 0.02 0.02 0.03 0.04 0.04 0.03 0.03 0.03 0.02 0.03 0.03 0.03 0.03 0.03 0.02 0.03 0.03 0.03 0.03 0.04 0.05 0.06
0.00 0.00 0.01 0.02 0.03 0.05 0.06 0.11 0.08 0.06 0.04 0.03 0.04 0.03 0.05 0.06 0.05 0.04 0.03 0.03 0.02 0.02 0.03 0.03 0.03 0.03 0.03 0.03 0.02 0.02 0.03 0.04 0.04 0.04 0.04 0.03 0.04 0.04 0.04 0.04 0.04 0.04 0.05
0.00 0.00 0.01 0.02 0.04 0.04 0.04 0.04 0.06 0.08 0.12 0.09 0.06 0.06 0.05 0.06 0.05 0.04 0.03 0.03 0.03 0.03 0.03 0.02 0.03 0.03 0.03 0.02 0.01 0.02 0.02 0.03 0.03 0.04 0.05 0.05 0.05 0.05 0.05 0.05 0.04 0.04 0.04
0.00 0.00 0.01 0.01 0.02 0.03 0.04 0.03 0.03 0.03 0.04 0.06 0.06 0.06 0.05 0.05 0.04 0.04 0.04 0.04 0.05 0.04 0.04 0.04 0.03 0.02 0.02 0.01 0.01 0.02 0.02 0.02 0.02 0.02 0.03 0.03 0.03 0.04 0.05 0.05 0.06 0.06 0.06
0.00 0.01 0.01 0.02 0.02 0.03 0.03 0.03 0.03 0.02 0.03 0.04 0.04 0.04 0.04 0.04 0.04 0.04 0.05 0.06 0.06 0.04 0.05 0.04 0.02 0.01 0.01 0.00 0.01 0.01 0.02 0.02 0.02 0.01 0.01 0.01 0.01 0.01 0.02 0.02 0.03 0.04 0.04
0.00 0.01 0.01 0.01 0.02 0.02 0.02 0.02 0.02 0.02 0.02 0.03 0.03 0.04 0.05 0.05 0.05 0.05 0.06 0.07 0.07 0.06 0.06 0.04 0.02 0.01 0.00 0.01 0.01 0.01 0.02 0.03 0.02 0.02 0.02 0.01 0.01 0.01 0.01 0.01 0.01 0.01 0.03
0.00 0.00 0.01 0.02 0.02 0.02 0.02 0.02 0.01 0.01 0.01 0.02 0.03 0.05 0.06 0.06 0.07 0.07 0.06 0.06 0.06 0.05 0.04 0.03 0.02 0.02 0.03 0.03 0.02 0.01 0.02 0.03 0.03 0.03 0.03 0.01 0.01 0.01 0.01 0.01 0.01 0.01 0.02
0.00 0.01 0.02 0.02 0.02 0.02 0.02 0.02 0.02 0.02 0.03 0.04 0.05 0.06 0.07 0.08 0.08 0.08 0.07 0.07 0.06 0.05 0.05 0.04 0.03 0.03 0.03 0.04 0.02 0.01 0.01 0.02 0.03 0.03 0.03 0.02 0.02 0.02 0.02 0.02 0.02 0.02 0.02
0.00 0.01 0.02 0.02 0.02 0.03 0.03 0.02 0.02 0.02 0.03 0.04 0.05 0.06 0.08 0.08 0.07 0.05 0.05 0.05 0.04 0.03 0.03 0.03 0.03 0.03 0.03 0.04 0.02 0.02 0.01 0.01 0.03 0.03 0.03 0.03 0.02 0.02 0.03 0.02 0.02 0.03 0.03
0.01 0.01 0.02 0.03 0.03 0.03 0.03 0.03 0.03 0.04 0.04 0.05 0.04 0.04 0.04 0.04 0.03 0.03 0.03 0.03 0.03 0.04 0.03 0.03 0.03 0.03 0.04 0.04 0.02 0.02 0.02 0.02 0.02 0.03 0.03 0.03 0.03 0.04 0.05 0.04 0.04 0.04 0.04
0.01 0.01 0.02 0.04 0.05 0.05 0.05 0.05 0.05 0.05 0.04 0.04 0.03 0.03 0.03 0.02 0.02 0.02 0.02 0.02 0.02 0.02 0.02 0.03 0.03 0.04 0.04 0.04 0.03 0.03 0.03 0.04 0.04 0.04 0.03 0.05 0.06 0.05 0.05 0.05 0.03 0.03 0.05
0.01 0.01 0.02 0.04 0.06 0.07 0.06 0.05 0.05 0.04 0.03 0.02 0.02 0.02 0.02 0.02 0.01 0.02 0.01 0.01 0.02 0.02 0.02 0.02 0.03 0.03 0.04 0.04 0.05 0.05 0.05 0.06 0.06 0.05 0.05 0.06 0.07 0.05 0.06 0.06 0.05 0.04 0.05
0.01 0.02 0.02 0.04 0.06 0.06 0.05 0.03 0.02 0.02 0.01 0.02 0.02 0.03 0.02 0.02 0.02 0.02 0.02 0.02 0.02 0.02 0.02 0.02 0.02 0.02 0.04 0.05 0.07 0.09 0.09 0.10 0.09 0.08 0.08 0.08 0.07 0.06 0.06 0.06 0.06 0.05 0.05
0.01 0.01 0.02 0.04 0.05 0.04 0.03 0.02 0.02 0.01 0.02 0.03 0.03 0.03 0.03 0.02 0.02 0.02 0.02 0.02 0.02 0.02 0.03 0.03 0.03 0.03 0.02 0.02 0.03 0.04 0.05 0.06 0.06 0.05 0.05 0.05 0.04 0.04 0.04 0.05 0.07 0.06 0.05
0.01 0.01 0.02 0.03 0.04 0.03 0.03 0.02 0.02 0.02 0.03 0.03 0.03 0.03 0.03 0.02 0.02 0.03 0.02 0.02 0.03 0.03 0.03 0.02 0.02 0.02 0.02 0.02 0.02 0.02 0.02 0.02 0.02 0.02 0.01 0.01 0.02 0.02 0.03 0.05 0.07 0.05 0.05
0.01 0.02 0.03 0.03 0.04 0.04 0.03 0.02 0.02 0.03 0.03 0.03 0.02 0.02 0.02 0.02 0.02 0.02 0.02 0.01 0.01 0.01 0.02 0.02 0.02 0.01 0.01 0.01 0.01 0.01 0.01 0.01 0.01 0.01 0.01 0.02 0.02 0.03 0.03 0.04 0.04 0.05 0.05
MSLP
1012.36 1012.52 1012.66 1012.71 1012.66 1012.48 1012.18 1011.78 1011.32 1010.85 1010.40 1010.00 1009.65 1009.36 1009.12 1008.90 1008.68 1008.45 1008.19 1007.90 1007.59 1007.29 1007.00 1006.76 1006.58 1006.47 1006.44 1006.48 1006.58 1006.75 1006.96 1007.21 1007.48 1007.75 1008.00 1008.23 1008.42 1008.56 1008.66 1008.71 1008.74 1008.76 1008.80
1012.66 1012.86 1013.03 1013.11 1013.07 1012.89 1012.60 1012.22 1011.78 1011.35 1010.95 1010.59 1010.28 1010.01 1009.76 1009.51 1009.24 1008.95 1008.63 1008.31 1007.98 1007.68 1007.41 1007.19 1007.02 1006.90 1006.82 1006.79 1006.80 1006.86 1006.97 1007.14 1007.34 1007.59 1007.86 1008.13 1008.37 1008.56 1008.70 1008.76 1008.77 1008.74 1008.69
1012.88 1013.12 1013.32 1013.41 1013.38 1013.22 1012.95 1012.60 1012.22 1011.84 1011.50 1011.20 1010.94 1010.69 1010.44 1010.16 1009.85 1009.51 1009.15 1008.80 1008.47 1008.18 1007.94 1007.76 1007.61 1007.50 1007.40 1007.32 1007.25 1007.22 1007.23 1007.30 1007.44 1007.64 1007.89 1008.17 1008.43 1008.65 1008.78 1008.84 1008.80 1008.69 1008.54
1012.99 1013.26 1013.48 1013.60 1013.59 1013.45 1013.21 1012.91 1012.60 1012.30 1012.04 1011.82 1011.62 1011.41 1011.17 1010.88 1010.55 1010.18 1009.79 1009.43 1009.10 1008.84 1008.64 1008.50 1008.40 1008.30 1008.20 1008.08 1007.95 1007.83 1007.74 1007.72 1007.77 1007.90 1008.11 1008.34 1008.58 1008.78 1008.89 1008.90 1008.80 1008.61 1008.37
1013.02 1013.32 1013.57 1013.70 1013.71 1013.60 1013.40 1013.16 1012.92 1012.70 1012.54 1012.40 1012.27 1012.12 1011.92 1011.65 1011.31 1010.93 1010.54 1010.18 1009.87 1009.64 1009.48 1009.38 1009.31 1009.23 1009.12 1008.98 1008.79 1008.60 1008.42 1008.29 1008.25 1008.30 1008.42 1008.59 1008.78 1008.92 1008.98 1008.94 1008.78 1008.52 1008.20
1013.02 1013.34 1013.61 1013.76 1013.80 1013.72 1013.56 1013.37 1013.19 1013.06 1012.97 1012.92 1012.87 1012.78 1012.62 1012.38 1012.06 1011.70 1011.32 1010.97 1010.69 1010.48 1010.35 1010.28 1010.23 1010.16 1010.05 1009.87 1009.64 1009.38 1009.11 1008.90 1008.76 1008.71 1008.74 1008.84 1008.95 1009.03 1009.04 1008.94 1008.74 1008.43 1008.06
1013.04 1013.38 1013.66 1013.84 1013.90 1013.84 1013.72 1013.57 1013.44 1013.37 1013.34 1013.35 1013.36 1013.32 1013.22 1013.02 1012.73 1012.39 1012.03 1011.70 1011.44 1011.25 1011.14 1011.08 1011.04 1010.97 1010.84 1010.63 1010.36 1010.04 1009.71 1009.42 1009.20 1009.06 1009.02 1009.04 1009.08 1009.11 1009.08 1008.96 1008.73 1008.41 1008.03
1013.12 1013.48 1013.78 1013.98 1014.05 1014.01 1013.91 1013.78 1013.68 1013.64 1013.65 1013.69 1013.73 1013.73 1013.66 1013.49 1013.24 1012.93 1012.60 1012.29 1012.04 1011.86 1011.75 1011.69 1011.63 1011.55 1011.40 1011.17 1010.87 1010.52 1010.15 1009.81 1009.53 1009.34 1009.24 1009.21 1009.21 1009.21 1009.16 1009.02 1008.80 1008.50 1008.13
1013.26 1013.64 1013.96 1014.17 1014.25 1014.22 1014.13 1014.01 1013.91 1013.87 1013.88 1013.93 1013.98 1013.99 1013.94 1013.80 1013.58 1013.29 1012.99 1012.70 1012.46 1012.28 1012.16 1012.08 1012.01 1011.91 1011.74 1011.50 1011.19 1010.83 1010.45 1010.10 1009.81 1009.60 1009.47 1009.42 1009.40 1009.38 1009.33 1009.21 1009.02 1008.74 1008.40
1013.44 1013.84 1014.16 1014.38 1014.46 1014.44 1014.34 1014.22 1014.11 1014.05 1014.04 1014.07 1014.11 1014.12 1014.07 1013.95 1013.75 1013.49 1013.21 1012.95 1012.72 1012.54 1012.42 1012.32 1012.24 1012.12 1011.94 1011.71 1011.40 1011.06 1010.70 1010.37 1010.10 1009.90 1009.78 1009.72 1009.71 1009.70 1009.66 1009.56 1009.38 1009.14 1008.84
1013.61 1014.00 1014.33 1014.54 1014.62 1014.60 1014.50 1014.36 1014.24 1014.16 1014.13 1014.13 1014.15 1014.14 1014.10 1013.98 1013.80 1013.58 1013.33 1013.09 1012.88 1012.71 1012.58 1012.49 1012.39 1012.28 1012.11 1011.89 1011.62 1011.32 1011.01 1010.72 1010.49 1010.32 1010.23 1010.19 1010.18 1010.17 1010.13 1010.04 1009.88 1009.66 1009.37
1013.70 1014.08 1014.39 1014.59 1014.67 1014.65 1014.55 1014.42 1014.29 1014.20 1014.14 1014.13 1014.12 1014.11 1014.06 1013.96 1013.81 1013.61 1013.40 1013.20 1013.02 1012.87 1012.75 1012.66 1012.57 1012.47 1012.32 1012.14 1011.92 1011.67 1011.42 1011.19 1011.00 1010.88 1010.80 1010.77 1010.76 1010.74 1010.70 1010.60 1010.43 1010.20 1009.91
1013.68 1014.04 1014.32 1014.50 1014.58 1014.55 1014.46 1014.35 1014.24 1014.14 1014.09 1014.07 1014.06 1014.04 1014.00 1013.91 1013.78 1013.63 1013.46 1013.29 1013.14 1013.02 1012.94 1012.86 1012.80 1012.72 1012.60 1012.46 1012.29 1012.10 1011.90 1011.73 1011.59 1011.49 1011.42 1011.39 1011.37 1011.33 1011.25 1011.12 1010.94 1010.68 1010.38
1013.56 1013.88 1014.12 1014.28 1014.34 1014.33 1014.26 1014.18 1014.09 1014.03 1013.99 1013.98 1013.98 1013.96 1013.93 1013.86 1013.75 1013.62 1013.49 1013.36 1013.25 1013.16 1013.10 1013.05 1013.01 1012.96 1012.88 1012.78 1012.65 1012.51 1012.37 1012.23 1012.12 1012.04 1011.97 1011.92 1011.87 1011.80 1011.68 1011.52 1011.30 1011.02 1010.70
1013.39 1013.65 1013.85 1013.97 1014.02 1014.02 1013.98 1013.94 1013.90 1013.88 1013.87 1013.88 1013.89 1013.88 1013.84 1013.78 1013.69 1013.58 1013.46 1013.35 1013.26 1013.20 1013.16 1013.13 1013.12 1013.09 1013.04 1012.98 1012.89 1012.79 1012.68 1012.57 1012.47 1012.39 1012.32 1012.25 1012.16 1012.06 1011.91 1011.72 1011.48 1011.18 1010.85
1013.22 1013.42 1013.56 1013.65 1013.68 1013.70 1013.69 1013.69 1013.70 1013.72 1013.75 1013.78 1013.79 1013.78 1013.74 1013.66 1013.56 1013.44 1013.32 1013.21 1013.12 1013.06 1013.02 1013.01 1013.01 1013.00 1012.98 1012.93 1012.88 1012.80 1012.71 1012.62 1012.54 1012.46 1012.37 1012.29 1012.19 1012.07 1011.91 1011.71 1011.46 1011.18 1010.86
1013.10 1013.23 1013.32 1013.38 1013.40 1013.42 1013.44 1013.48 1013.53 1013.58 1013.64 1013.68 1013.69 1013.66 1013.59 1013.48 1013.34 1013.18 1013.03 1012.89 1012.78 1012.70 1012.65 1012.63 1012.62 1012.62 1012.62 1012.59 1012.55 1012.49 1012.43 1012.36 1012.28 1012.20 1012.13 1012.05 1011.96 1011.84 1011.70 1011.52 1011.31 1011.07 1010.79
1013.06 1013.14 1013.18 1013.20 1013.22 1013.24 1013.28 1013.34 1013.41 1013.48 1013.55 1013.58 1013.57 1013.50 1013.38 1013.21 1013.01 1012.79 1012.58 1012.38 1012.23 1012.11 1012.04 1012.00 1011.98 1011.98 1011.98 1011.97 1011.94 1011.91 1011.86 1011.81 1011.75 1011.70 1011.65 1011.59 1011.53 1011.46 1011.36 1011.24 1011.08 1010.90 1010.68
1013.10 1013.14 1013.14 1013.13 1013.12 1013.14 1013.18 1013.25 1013.32 1013.40 1013.44 1013.45 1013.40 1013.28 1013.10 1012.86 1012.58 1012.29 1012.00 1011.75 1011.54 1011.38 1011.26 1011.20 1011.17 1011.16 1011.17 1011.17 1011.16 1011.15 1011.13 1011.11 1011.08 1011.06 1011.04 1011.03 1011.02 1011.00 1010.96 1010.90 1010.82 1010.70 1010.55
1013.17 1013.18 1013.16 1013.12 1013.09 1013.09 1013.12 1013.17 1013.23 1013.28 1013.30 1013.26 1013.16 1012.98 1012.73 1012.42 1012.08 1011.72 1011.38 1011.06 1010.80 1010.60 1010.46 1010.37 1010.33 1010.32 1010.34 1010.36 1010.37 1010.39 1010.40 1010.40 1010.41 1010.42 1010.44 1010.47 1010.50 1010.53 1010.55 1010.55 1010.52 1010.46 1010.36
1013.25 1013.23 1013.18 1013.12 1013.06 1013.03 1013.03 1013.05 1013.08 1013.08 1013.06 1012.97 1012.82 1012.59 1012.29 1011.93 1011.54 1011.14 1010.75 1010.40 1010.11 1009.88 1009.72 1009.63 1009.59 1009.60 1009.62 1009.66 1009.70 1009.74 1009.76 1009.80 1009.83 1009.86 1009.90 1009.95 1010.01 1010.06 1010.11 1010.14 1010.14 1010.10 1010.02
1013.28 1013.24 1013.17 1013.07 1012.98 1012.92 1012.87 1012.84 1012.81 1012.77 1012.70 1012.57 1012.38 1012.11 1011.78 1011.40 1010.99 1010.57 1010.18 1009.82 1009.53 1009.30 1009.15 1009.07 1009.04 1009.06 1009.10 1009.16 1009.22 1009.26 1009.31 1009.34 1009.37 1009.40 1009.44 1009.48 1009.52 1009.56 1009.60 1009.62 1009.60 1009.56 1009.46
1013.26 1013.20 1013.09 1012.96 1012.83 1012.71 1012.60 1012.51 1012.43 1012.33 1012.21 1012.04 1011.82 1011.54 1011.21 1010.84 1010.44 1010.04 1009.68 1009.35 1009.08 1008.89 1008.76 1008.70 1008.69 1008.72 1008.78 1008.84 1008.91 1008.96 1008.99 1009.01 1009.02 1009.01 1009.00 1008.99 1008.98 1008.97 1008.95 1008.92 1008.86 1008.77 1008.64
1013.18 1013.09 1012.95 1012.78 1012.60 1012.41 1012.24 1012.08 1011.94 1011.78 1011.61 1011.41 1011.17 1010.90 1010.58 1010.24 1009.90 1009.56 1009.24 1008.96 1008.74 1008.59 1008.50 1008.46 1008.48 1008.53 1008.59 1008.65 1008.71 1008.74 1008.75 1008.72 1008.68 1008.61 1008.54 1008.45 1008.36 1008.26 1008.15 1008.04 1007.91 1007.77 1007.60
1013.09 1012.96 1012.78 1012.56 1012.32 1012.07 1011.83 1011.60 1011.38 1011.17 1010.95 1010.72 1010.48 1010.22 1009.94 1009.65 1009.36 1009.08 1008.83 1008.62 1008.46 1008.34 1008.29 1008.28 1008.31 1008.36 1008.42 1008.48 1008.51 1008.51 1008.48 1008.40 1008.30 1008.16 1008.00 1007.82 1007.63 1007.44 1007.25 1007.05 1006.86 1006.66 1006.45
1013.00 1012.84 1012.62 1012.35 1012.05 1011.74 1011.42 1011.12 1010.83 1010.56 1010.30 1010.04 1009.80 1009.55 1009.31 1009.07 1008.84 1008.63 1008.44 1008.28 1008.17 1008.09 1008.06 1008.06 1008.09 1008.14 1008.18 1008.21 1008.22 1008.19 1008.12 1007.99 1007.83 1007.63 1007.40 1007.14 1006.88 1006.62 1006.36 1006.10 1005.86 1005.63 1005.41
Thickness
5834 5832 5829 5825 5820 5815 5811 5807 5804 5802 5800 5796 5792 5790 5789 5791 5790 5789 5787 5785 5784 5784 5783 5781 5780 5780 5778 5776 5776 5774 5772 5772 5774 5771 5769 5771 5774 5772 5771 5772 5771 5770 5769
5833 5830 5828 5825 5820 5815 5811 5807 5803 5801 5799 5796 5794 5792 5790 5790 5789 5787 5785 5784 5783 5782 5782 5779 5778 5777 5775 5774 5773 5771 5769 5770 5771 5766 5760 5757 5761 5766 5770 5769 5769 5769 5769
5833 5829 5826 5824 5821 5815 5811 5809 5804 5800 5798 5796 5794 5792 5789 5786 5785 5783 5782 5783 5782 5781 5778 5778 5776 5775 5773 5770 5770 5769 5766 5764 5767 5768 5760 5751 5748 5755 5763 5767 5768 5768 5767
5839 5832 5828 5823 5821 5818 5814 5808 5804 5800 5797 5795 5791 5787 5783 5780 5780 5780 5780 5781 5780 5779 5777 5776 5774 5773 5772 5770 5769 5768 5766 5764 5761 5764 5764 5762 5758 5751 5750 5758 5763 5765 5764
5841 5835 5832 5827 5825 5821 5816 5808 5803 5798 5796 5793 5790 5786 5782 5781 5781 5780 5778 5777 5777 5777 5775 5774 5772 5771 5769 5768 5767 5766 5765 5763 5760 5759 5759 5759 5758 5757 5749 5746 5752 5757 5760
5842 5838 5836 5830 5826 5822 5816 5810 5802 5796 5794 5791 5789 5784 5781 5779 5776 5775 5773 5773 5773 5773 5772 5771 5770 5768 5767 5765 5764 5763 5762 5761 5759 5757 5757 5754 5752 5750 5748 5745 5746 5748 5753
5840 5835 5831 5825 5822 5818 5814 5809 5801 5795 5793 5790 5787 5784 5781 5778 5774 5773 5772 5770 5770 5768 5768 5768 5766 5765 5764 5762 5761 5760 5758 5757 5755 5754 5753 5753 5752 5751 5749 5745 5743 5744 5748
5838 5833 5829 5825 5820 5816 5810 5805 5799 5794 5791 5788 5784 5782 5779 5777 5775 5773 5772 5770 5768 5767 5766 5765 5763 5762 5760 5759 5757 5756 5754 5753 5752 5752 5750 5749 5749 5749 5747 5743 5739 5736 5739
5836 5832 5828 5824 5819 5814 5809 5803 5797 5793 5790 5787 5783 5780 5777 5775 5772 5771 5770 5768 5766 5766 5764 5762 5759 5758 5756 5755 5753 5751 5749 5748 5747 5746 5746 5744 5744 5745 5745 5743 5740 5733 5727
5834 5829 5826 5822 5819 5814 5809 5803 5797 5792 5789 5786 5782 5779 5776 5773 5771 5769 5766 5765 5763 5761 5759 5757 5755 5753 5751 5750 5748 5746 5745 5742 5741 5741 5739 5738 5738 5738 5738 5737 5736 5734 5728
5830 5826 5822 5818 5815 5812 5807 5801 5797 5792 5788 5785 5781 5778 5774 5772 5770 5767 5764 5762 5759 5758 5755 5752 5750 5748 5746 5744 5742 5740 5739 5736 5735 5734 5733 5731 5731 5730 5730 5730 5729 5728 5726
5827 5823 5819 5814 5810 5806 5803 5797 5794 5791 5788 5784 5780 5775 5773 5770 5766 5762 5760 5758 5755 5753 5750 5748 5745 5743 5740 5738 5736 5733 5732 5730 5728 5727 5725 5723 5724 5722 5721 5721 5720 5720 5720
5820 5817 5813 5807 5803 5800 5797 5794 5791 5789 5787 5782 5777 5772 5768 5764 5761 5759 5757 5754 5751 5748 5745 5742 5739 5736 5734 5732 5730 5728 5727 5725 5723 5721 5718 5716 5715 5713 5713 5712 5712 5712 5714
5812 5809 5805 5800 5797 5793 5790 5788 5786 5785 5783 5778 5773 5768 5764 5761 5758 5755 5753 5750 5747 5743 5740 5737 5733 5731 5728 5725 5723 5721 5720 5718 5717 5715 5713 5711 5708 5706 5704 5704 5703 5703 5702
5805 5801 5797 5793 5790 5787 5784 5783 5781 5779 5776 5772 5767 5763 5761 5758 5754 5751 5748 5745 5741 5739 5735 5730 5727 5725 5722 5718 5715 5713 5713 5711 5709 5708 5707 5705 5702 5700 5698 5697 5696 5695 5693
5797 5795 5791 5786 5783 5780 5778 5777 5774 5772 5770 5765 5761 5758 5755 5752 5748 5745 5742 5738 5735 5732 5729 5725 5720 5717 5715 5711 5708 5706 5705 5704 5701 5700 5699 5698 5696 5694 5692 5691 5689 5688 5686
5792 5789 5785 5781 5778 5776 5774 5770 5769 5767 5763 5759 5755 5752 5749 5745 5742 5739 5735 5731 5728 5724 5721 5718 5714 5710 5706 5703 5701 5699 5697 5697 5695 5693 5691 5690 5691 5688 5685 5683 5683 5681 5680
5786 5783 5780 5777 5775 5773 5769 5766 5763 5759 5754 5750 5746 5743 5740 5737 5734 5731 5728 5724 5721 5718 5714 5711 5708 5704 5700 5697 5695 5693 5692 5691 5689 5686 5684 5682 5680 5679 5676 5675 5675 5674 5673
5783 5779 5777 5773 5769 5766 5762 5757 5753 5749 5745 5741 5737 5735 5733 5729 5726 5722 5719 5716 5713 5710 5708 5705 5702 5698 5694 5691 5688 5686 5685 5684 5682 5680 5678 5675 5672 5670 5668 5666 5665 5665 5666
5778 5773 5770 5765 5760 5757 5754 5748 5743 5740 5736 5733 5730 5728 5725 5722 5718 5714 5712 5709 5707 5704 5702 5699 5697 5693 5688 5684 5681 5678 5677 5675 5674 5672 5670 5667 5664 5661 5658 5656 5656 5655 5655
5769 5765 5760 5754 5750 5749 5744 5739 5735 5731 5729 5727 5724 5720 5717 5714 5711 5708 5705 5702 5700 5697 5695 5692 5690 5687 5683 5679 5675 5671 5668 5666 5665 5663 5661 5659 5655 5652 5649 5648 5648 5647 5647
5757 5754 5748 5743 5741 5739 5734 5729 5726 5725 5723 5719 5716 5712 5709 5707 5705 5700 5697 5695 5692 5689 5687 5684 5682 5680 5677 5673 5668 5665 5661 5658 5655 5654 5653 5651 5648 5644 5642 5641 5641 5640 5639
5747 5744 5739 5734 5731 5730 5726 5720 5718 5717 5714 5710 5707 5704 5702 5700 5697 5692 5689 5687 5685 5682 5679 5676 5673 5671 5669 5665 5661 5656 5653 5650 5647 5646 5644 5641 5639 5637 5636 5636 5634 5633 5631
5736 5733 5729 5724 5721 5720 5717 5714 5712 5709 5705 5701 5699 5697 5694 5691 5689 5686 5683 5680 5677 5673 5670 5666 5663 5661 5659 5654 5650 5647 5645 5642 5640 5637 5634 5632 5631 5629 5628 5628 5627 5626 5625
5726 5724 5720 5715 5712 5711 5708 5707 5704 5701 5696 5693 5691 5690 5687 5685 5681 5677 5674 5672 5668 5665 5661 5658 5655 5651 5648 5643 5639 5636 5636 5633 5630 5626 5625 5625 5624 5623 5622 5622 5621 5620 5618
5717 5714 5711 5708 5706 5703 5701 5699 5697 5693 5688 5685 5684 5683 5681 5678 5675 5670 5667 5664 5661 5658 5655 5651 5647 5644 5639 5636 5633 5629 5627 5624 5620 5617 5618 5618 5617 5615 5614 5613 5612 5611 5609